sat.trackr.live / text

‹ back to catalog

COSMOS 2436 (723)

NORAD 32395 · 2007-065C

PAYLOAD ACTIVE UNKNOWN

§ Identity

Operator
Country
CIS
Launch date
2007-12-25
Launch site
TYMSC
Launch vehicle
Mass (kg)
RCS (m²)
5.02

Purposes: nav

External: N2YO · Heavens-Above · Gunter

§ Orbital elements

Epoch: 2026-09-13T19:24:48.515904Z

Period
675.74 min
Inclination
64.3278°
Eccentricity
0.0017431
Mean motion
2.13099914 rev/d
Perigee alt
19,085.6 km
Apogee alt
19,174.5 km
Semi-major
25,508.2 km
B*
0.0000e+0
RAAN
189.0015°
Arg perigee
358.9921°
Mean anomaly
178.4758°
Rev number
14,561

§ Raw data

COSMOS 2436 (723)1 32395U 07065C   26256.80889486  .00000017  00000+0  00000+0 0  99982 32395  64.3278 189.0015 0017431 358.9921 178.4758  2.13099914145616

JSON: /api/v1/satellites/32395 · /tle

For live sub-satellite position, see the globe view (requires WebGL).

§ Visibility from observer

Set your observer location to see the next 7 days of passes ≥ 10°. The values pass through the URL so the page stays shareable.

No JS? Fill the form by hand. The geolocation button needs JavaScript.